Location: Ambrosina
(19.9365°S, 43.9833°W)
Time: 02:01:13
(UTC+00:00)

Okean O Rocket - Pass Details

Date: 11 May 2021
Orbit: 622 x 645 km, 98.2° (Epoch: 20 June)

Event Time Altitude Azimuth Distance (km) Brightness Sun altitude
Rises 22:16:15 0° 189° (S) 2,966 5.0 -25.2°
Reaches altitude 10° 22:18:53 10° 204° (SSW) 2,052 4.4 -25.8°
Maximum altitude 22:22:15 21° 253° (WSW) 1,442 4.0 -26.6°
Drops below altitude 10° 22:25:36 10° 302° (WNW) 2,041 5.1 -27.4°
Sets 22:28:14 0° 318° (NW) 2,943 5.8 -28.0°
